TimeEST,TemperatureF,Dew PointF,Humidity,Sea Level PressureIn,VisibilityMPH,Wind Direction,Wind SpeedMPH,Gust SpeedMPH,PrecipitationIn,Events,Conditions,WindDirDegrees,DateUTC
12:53 AM,33.1,27.0,78,29.88,10.0,West,12.7,-,N/A,,Mostly Cloudy,270,2013-02-15 05:53:00
1:53 AM,33.1,26.1,75,29.89,10.0,NW,8.1,-,N/A,,Overcast,310,2013-02-15 06:53:00
2:26 AM,32.0,24.8,75,29.88,10.0,NW,10.4,17.3,N/A,,Overcast,310,2013-02-15 07:26:00
2:53 AM,30.9,23.0,72,29.91,10.0,WNW,11.5,20.7,N/A,,Overcast,300,2013-02-15 07:53:00
3:19 AM,30.2,24.8,80,29.90,10.0,WNW,10.4,-,N/A,,Mostly Cloudy,300,2013-02-15 08:19:00
3:53 AM,30.0,21.9,72,29.92,10.0,WNW,11.5,-,N/A,,Mostly Cloudy,300,2013-02-15 08:53:00
4:00 AM,28.4,21.2,74,29.90,10.0,NW,6.9,-,N/A,,Scattered Clouds,310,2013-02-15 09:00:00
5:53 AM,27.0,19.9,75,29.98,10.0,WNW,6.9,-,N/A,,Mostly Cloudy,300,2013-02-15 10:53:00
6:53 AM,27.0,17.1,66,30.01,10.0,WNW,8.1,-,N/A,,Overcast,300,2013-02-15 11:53:00
7:53 AM,26.1,16.0,66,30.03,10.0,NW,6.9,-,N/A,,Overcast,320,2013-02-15 12:53:00
8:53 AM,26.1,15.1,63,30.06,10.0,NNW,10.4,17.3,N/A,,Overcast,330,2013-02-15 13:53:00
9:53 AM,27.0,14.0,58,30.07,10.0,NW,13.8,20.7,N/A,,Overcast,320,2013-02-15 14:53:00
10:53 AM,28.0,15.1,58,30.08,10.0,WNW,13.8,19.6,N/A,,Mostly Cloudy,290,2013-02-15 15:53:00
11:22 AM,30.2,15.8,55,30.06,10.0,West,13.8,-,N/A,,Mostly Cloudy,280,2013-02-15 16:22:00
11:53 AM,30.0,15.1,54,30.08,10.0,WNW,12.7,21.9,N/A,,Overcast,290,2013-02-15 16:53:00
12:53 PM,30.9,15.1,52,30.08,10.0,WNW,13.8,20.7,N/A,,Overcast,290,2013-02-15 17:53:00
1:53 PM,28.9,14.0,54,30.07,10.0,NW,13.8,-,N/A,,Overcast,320,2013-02-15 18:53:00
2:53 PM,28.9,10.9,47,30.07,10.0,WNW,12.7,-,N/A,,Overcast,290,2013-02-15 19:53:00
3:53 PM,30.0,10.9,45,30.09,10.0,NW,10.4,-,N/A,,Overcast,320,2013-02-15 20:53:00
4:53 PM,28.0,10.0,47,30.10,10.0,WNW,12.7,-,N/A,,Mostly Cloudy,290,2013-02-15 21:53:00
5:53 PM,27.0,10.9,51,30.11,10.0,WNW,10.4,-,N/A,,Overcast,290,2013-02-15 22:53:00
6:53 PM,26.1,10.9,53,30.13,10.0,WNW,11.5,-,N/A,,Mostly Cloudy,300,2013-02-15 23:53:00
7:53 PM,26.1,10.9,53,30.13,10.0,WNW,8.1,-,N/A,,Overcast,300,2013-02-16 00:53:00
8:53 PM,26.1,10.9,53,30.13,10.0,NW,6.9,-,N/A,,Overcast,310,2013-02-16 01:53:00
9:53 PM,25.0,14.0,63,30.14,10.0,WNW,10.4,-,N/A,,Overcast,290,2013-02-16 02:53:00
10:53 PM,23.0,12.0,63,30.14,10.0,WNW,10.4,-,N/A,,Mostly Cloudy,290,2013-02-16 03:53:00
11:53 PM,19.9,10.9,68,30.13,10.0,West,6.9,-,N/A,,Clear,280,2013-02-16 04:53:00